Regional Weather Roundup
Issued by NWS Sterling, VA

Home | Current Version | Previous Version | Text Only | Print | Product List | Glossary On
Versions: 1 2 3 4 5 6 7 8 9 10 11 12 13 14 15 16 17 18 19 20 21 22 23 24 25 26 27 28 29 30 31 32 33 34 35 36 37 38 39 40 41 42 43 44 45 46 47 48 49 50
000
ASUS41 KLWX 230210
RWRLWX

REGIONAL WEATHER ROUNDUP
NATIONAL WEATHER SERVICE BALTIMORE MD/WASHINGTON DC
900 PM EST WED FEB 22 2017

Note: "FAIR" indicates few or no clouds below 12,000 feet
with no significant weather and/or obstructions to visibility.
 TC=TEMPERATURE CELSIUS

 * =Non NWS site. Station does not report precipitation (e.g. rain,
    snow, etc.), thunder, or fog.

DCZ001-MDZ009-015-VAZ040>042-051-053>054-230300-
WASHINGTON METRO

CITY           SKY/WX    TMP DP  RH WIND       PRES   REMARKS
WASHINGTON NAT MOCLDY    53  49  86 S8        29.92R
DULLES         CLOUDY    53  46  77 SE5       29.90S
ANDREWS AFB    PTCLDY    53  49  88 S7        29.90S
FT BELVOIR     PTCLDY    50  45  83 CALM      29.91S
QUANTICO       PTCLDY    50  49  96 S8        29.93S
COLLEGE PARK*  PTCLDY    50  43  76 CALM      29.91S
LEESBURG*      PTCLDY    55  52  88 MISG      29.91R
MANASSAS*      PTCLDY    55  51  86 S5        29.91S
GAITHERSBURG*  CLOUDY    54  43  66 SE6       29.94S

$$

MDZ006>007-011-014-230300-
BALTIMORE METRO

CITY           SKY/WX    TMP DP  RH WIND       PRES   REMARKS
BWI AIRPORT    CLOUDY    51  46  83 CALM      29.91S
MD SCIENCE CTR   N/A     52  44  74 MISG      29.92S
MARTIN STATE   PTCLDY    48  46  93 CALM      29.94R
ANNAPOLIS      CLOUDY    51  48  89 S5        29.92S
FORT MEADE*    CLOUDY    46  43  87 CALM      29.94R

$$

MDZ012-015-019>023-230300-
MARYLAND EASTERN SHORE

CITY           SKY/WX    TMP DP  RH WIND       PRES   REMARKS
OCEAN CITY     CLOUDY    57  53  86 SW9G18    29.95S
SALISBURY      CLOUDY    55  54  96 S6        29.94S
BAY BRIDGE AP* CLOUDY    50  48  93 S7        29.92S
CAMBRIDGE*     CLOUDY    52  52 100 S6        29.94S
EASTON*        CLEAR     54  50  87 S5        29.97S

$$

MDZ017>025-230300-
SOUTHERN MARYLAND

CITY           SKY/WX    TMP DP  RH WIND       PRES   REMARKS
PATUXENT RIVER MOCLDY    54  54 100 S3        29.93S
ST INIGOES     CLOUDY    55  52  89 S6        29.93S
LEONARDTOWN*   MOCLDY    54  52  94 SW3       29.94S

$$

MDZ003>005-230300-
NORTH CENTRAL MARYLAND

CITY           SKY/WX    TMP DP  RH WIND       PRES   REMARKS
FREDERICK*     NOT AVBL
HAGERSTOWN APT PTCLDY    57  45  64 SE5       29.88S
WESTMINSTER*   CLOUDY    52  46  82 SE3       29.90S

$$

MDZ501>502-230300-
WESTERN MARYLAND

CITY           SKY/WX    TMP DP  RH WIND       PRES   REMARKS
OAKLAND*       CLOUDY    52  46  82 SW5       29.90S
CUMBERLAND*    CLOUDY    61  45  55 CALM      29.90S

$$

VAZ025>031-230300-
SHENANDOAH VALLEY

CITY           SKY/WX    TMP DP  RH WIND       PRES   REMARKS
WINCHESTER*    CLOUDY    54  46  76 S6        29.88S
FRONT ROYAL*   PTCLDY    55  48  76 CALM      29.88S
LURAY*         CLOUDY    55  52  88 SW3       29.89S
NEW MARKET*    CLOUDY    55  49  81 SW7       29.88F
STAUNTON*      CLOUDY    54  50  86 SW5       29.93S
WAYNESBORO*    CLOUDY    55  50  83 SW5       29.92S

$$

WVZ021-048>050-054>055-230300-
EASTERN WEST VIRGINIA PANHANDLE

CITY           SKY/WX    TMP DP  RH WIND       PRES   REMARKS
MARTINSBURG    PTCLDY    52  44  74 CALM      29.87S
PETERSBURG*    CLOUDY    64  51  64 S7        29.87S

$$

VAZ036>039-050-230300-
CENTRAL FOOTHILLS

CITY           SKY/WX    TMP DP  RH WIND       PRES   REMARKS
CHARLOTTESVILL CLOUDY    56  53  90 S9        29.91S
CULPEPER*      MOCLDY    57  53  86 S3        29.92R
ORANGE*        CLOUDY    55  52  88 S6        29.93R
GORDONSVILLE*  CLOUDY    56  55  95 SW8       29.91S
WARRENTON*     CLOUDY    57  50  78 S5        29.90S

$$

VAZ055>057-230300-
NORTH AND CENTRAL PIEDMONT

CITY           SKY/WX    TMP DP  RH WIND       PRES   REMARKS
FREDERICKSBRG* CLOUDY    56  54  92 S6        29.91F
STAFFORD*      MOCLDY    55  53  96 S5        29.95F

$$

NCZ024-NYZ072-PAZ021-071-VAZ022-071-230300-
OTHER REGIONAL OBSERVATIONS

CITY           SKY/WX    TMP DP  RH WIND       PRES   REMARKS
NEW YORK CITY  CLOUDY    50  41  71 CALM      29.93S
PHILADELPHIA   CLOUDY    52  44  74 SW6       29.94R
PITTSBURGH     MOCLDY    59  52  77 W6        29.85R
ROANOKE        CLOUDY    52  51  97 CALM      29.96S FOG
RICHMOND       CLOUDY    53  53 100 S5        29.95S FOG
RALEIGH        CLOUDY    59  53  80 E3        29.95R

$$

ANZ530>537-230300-
MARINE OBSERVATIONS

STATION/POSITION TIME  TEMP    WIND        PRES
                       AIR SEA DIR/SP/G
                 (UTC) (F)     (DEG/KT/KT) (MB)
THOMAS PT LIGHT  0200   47 43  180/  5/  6   N/A
BALT KEY BRIDGE  0148   50      70/  2/  3 1013.1R
COVE POINT       0130   48     180/  7/  9 1014.1R
LEWISETTA        0148   56 45  220/  9/ 11 1013.4F
SOLOMONS ISLAND  0148   53 44  180/  4/  5   N/A
PINEY POINT      0142          150/  2/  2   N/A

$$




USA.gov is the U.S. government's official web portal to all federal, state and local government web resources and services.